Location: Hartford
(41.7640°N, 72.6860°W)
Time: 01:05:42
(UTC-04:00)

Amateur Radio Satellites - All Passes

Search period start: 26 October 2014 00:35
Search period end: 27 October 2014 00:35
Location: Hartford, 41.7640°N, 72.6860°W

Satellite Date Start Highest point End Downlink Frequencies (MHz)
Time Altitude Azimuth
Oscar 16 26 Oct 01:30:25 01:34:23 22° 94° (E) 01:38:20 437.025 USB, Beacon 2401.1428
RS-15 26 Oct 01:31:35 01:40:23 27° 337° (NNW) 01:49:17 29.354 - 29.394 USB, Beacon 29.352 USB
Uribyol 2 26 Oct 01:52:56 01:55:54 15° 90° (E) 01:58:52 436.500 FM
Oscar 10/S400 26 Oct 01:57:36 02:43:25 14° 248° (WSW) 04:02:46 145.825 - 145.975 CW/USB, Beacon 145.810 USB
ITAMSAT 1 26 Oct 01:59:03 02:02:18 17° 91° (E) 02:05:32 435.822 SSB
JAS-1B 26 Oct 02:10:51 02:17:27 51° 101° (E) 02:25:18 435.800 - 435.900 CW/SSB
Oscar 19 26 Oct 02:22:51 02:27:58 69° 102° (ESE) 02:33:03 437.125 CW, 437.150 USB
Gurwin Techsat 1B 26 Oct 02:25:51 02:29:03 16° 90° (E) 02:32:14 435.225 FM
TMSAT-1 26 Oct 02:36:32 02:39:27 15° 90° (E) 02:42:20 436.925 FM
AO-27 26 Oct 02:43:42 02:48:42 44° 99° (E) 02:53:39 436.795 MHz FM
AO-Echo 26 Oct 02:54:05 02:59:25 74° 102° (ESE) 03:04:43 ?
Oscar 16 26 Oct 03:09:05 03:13:55 44° 290° (WNW) 03:18:45 437.025 USB, Beacon 2401.1428
Sapphire 26 Oct 03:13:08 03:18:01 36° 111° (ESE) 03:22:57 437.095 MHz 1200 baud AX-25 AFSK
Uribyol 2 26 Oct 03:30:40 03:35:51 66° 287° (WNW) 03:40:58 436.500 FM
PCSat 26 Oct 03:35:00 03:40:19 61° 115° (ESE) 03:45:40 145.825 MHz
ITAMSAT 1 26 Oct 03:37:02 03:42:12 61° 288° (WNW) 03:47:19 435.822 SSB
RS-15 26 Oct 03:49:45 03:57:56 23° 13° (NNE) 04:06:16 29.354 - 29.394 USB, Beacon 29.352 USB
OPAL 26 Oct 03:55:03 03:58:41 20° 61° (ENE) 04:02:19 ?
JAS-1B 26 Oct 04:02:09 04:07:53 32° 295° (WNW) 04:14:31 435.800 - 435.900 CW/SSB
Oscar 19 26 Oct 04:03:44 04:06:44 16° 299° (WNW) 04:09:43 437.125 CW, 437.150 USB
Gurwin Techsat 1B 26 Oct 04:04:12 04:09:28 65° 287° (WNW) 04:14:43 435.225 FM
TMSAT-1 26 Oct 04:14:34 04:19:52 70° 286° (WNW) 04:25:07 436.925 FM
AO-7 26 Oct 04:18:31 04:25:50 33° 97° (E) 04:33:06 29.400 - 29.500 MHz
AO-27 26 Oct 04:23:47 04:27:56 24° 296° (WNW) 04:32:03 436.795 MHz FM
AO-Echo 26 Oct 04:34:25 04:37:32 16° 299° (WNW) 04:40:39 ?
Uosat F 26 Oct 04:40:34 04:45:01 31° 96° (E) 04:49:26 435.120 FM
Sapphire 26 Oct 04:56:31 05:01:26 34° 309° (NW) 05:06:23 437.095 MHz 1200 baud AX-25 AFSK
PCSat 26 Oct 05:19:53 05:24:09 23° 314° (NW) 05:28:26 145.825 MHz
OPAL 26 Oct 05:32:07 05:37:10 55° 257° (WSW) 05:42:11 ?
STRAND 1 26 Oct 05:41:21 05:45:08 21° 63° (ENE) 05:48:55 ?
JAS-2 26 Oct 05:59:41 06:07:20 55° 99° (E) 06:14:55 435.800 - 435.900 CW/SSB, 435.910 FM
RS-15 26 Oct 06:03:11 06:13:55 49° 45° (NE) 06:25:00 29.354 - 29.394 USB, Beacon 29.352 USB
AO-7 26 Oct 06:10:51 06:18:56 57° 295° (WNW) 06:27:00 29.400 - 29.500 MHz
Uosat F 26 Oct 06:19:18 06:23:46 32° 293° (WNW) 06:28:11 435.120 FM
Hamsat 26 Oct 06:35:59 06:40:10 69° 101° (ESE) 06:44:22 145.90 MHz
SO-67 26 Oct 06:54:29 06:55:31 11° 91° (E) 06:56:33 435.3500 MHz FM
STRAND 1 26 Oct 07:18:58 07:23:56 51° 260° (W) 07:28:58 ?
Saudisat 1A 26 Oct 07:25:01 07:29:23 74° 121° (ESE) 07:33:47 436.775 MHz
JAS-2 26 Oct 07:45:09 07:51:58 35° 296° (WNW) 07:58:49 435.800 - 435.900 CW/SSB, 435.910 FM
AO-7 26 Oct 08:06:20 08:09:57 14° 316° (NW) 08:13:35 29.400 - 29.500 MHz
Hamsat 26 Oct 08:14:16 08:15:33 11° 298° (WNW) 08:16:51 145.90 MHz
RS-15 26 Oct 08:15:44 08:26:28 55° 247° (WSW) 08:37:41 29.354 - 29.394 USB, Beacon 29.352 USB
MaSat-1 26 Oct 08:24:56 08:26:55 19° 55° (NE) 08:28:47 437.345 MHz
SO-67 26 Oct 08:25:26 08:28:42 40° 286° (WNW) 08:31:56 435.3500 MHz FM
PANSAT 26 Oct 09:02:56 09:03:57 11° 184° (S) 09:04:58 not established
Saudisat 1A 26 Oct 09:06:38 09:09:27 16° 320° (NW) 09:12:17 436.775 MHz
HO-68 26 Oct 09:11:54 09:18:28 37° 97° (E) 09:24:58 435.675 MHz FM
UKube-1 26 Oct 09:52:27 09:56:07 25° 96° (E) 09:59:44 145.840 MHz, 145.915 MHz
MaSat-1 26 Oct 10:01:44 10:02:11 10° 255° (WSW) 10:02:38 437.345 MHz
Oscar 11 26 Oct 10:32:06 10:36:25 68° 102° (ESE) 10:40:41 145.825 FM, Beacon 2401.500 USB
FUNcube-1 26 Oct 10:34:27 10:38:09 28° 96° (E) 10:41:46 145.950 - 145.970 MHz USB
PCSat 26 Oct 10:41:49 10:43:15 11° 34° (NE) 10:44:42 145.825 MHz
HO-68 26 Oct 10:59:29 11:06:13 45° 295° (WNW) 11:12:56 435.675 MHz FM
KITSAT 1 26 Oct 11:18:37 11:25:55 39° 109° (ESE) 11:33:13 435.175 FM
ZACube-1 26 Oct 11:25:59 11:30:14 72° 285° (WNW) 11:34:23 437.345 MHz
UKube-1 26 Oct 11:28:29 11:32:16 29° 292° (WNW) 11:36:02 145.840 MHz, 145.915 MHz
ISS 26 Oct 11:34:08 11:36:45 22° 134° (SE) 11:39:23 145.800 FM
SO-50 26 Oct 11:42:45 11:45:55 19° 110° (ESE) 11:49:09 436.795 FM
Sapphire 26 Oct 12:00:32 12:05:26 33° 50° (NE) 12:10:18 437.095 MHz 1200 baud AX-25 AFSK
Oscar 10/S400 26 Oct 12:01:41 12:19:13 25° 150° (SSE) 12:33:52 145.825 - 145.975 CW/USB, Beacon 145.810 USB
Oscar 19 26 Oct 12:03:59 12:06:29 14° 59° (ENE) 12:08:59 437.125 CW, 437.150 USB
Oscar 11 26 Oct 12:10:23 12:12:01 12° 298° (WNW) 12:13:39 145.825 FM, Beacon 2401.500 USB
FUNcube-1 26 Oct 12:11:00 12:14:24 24° 293° (WNW) 12:17:46 145.950 - 145.970 MHz USB
PCSat 26 Oct 12:22:41 12:28:00 51° 56° (NE) 12:33:15 145.825 MHz
AO-Echo 26 Oct 12:32:11 12:34:12 12° 58° (ENE) 12:36:14 ?
Oscar 16 26 Oct 12:47:29 12:52:06 34° 68° (ENE) 12:56:43 437.025 USB, Beacon 2401.1428
JAS-1B 26 Oct 12:58:29 13:03:50 38° 67° (ENE) 13:09:02 435.800 - 435.900 CW/SSB
UOSAT-12 26 Oct 13:00:04 13:00:50 10° 106° (ESE) 13:01:36 437.025 FM, 437.400 FM
ISS 26 Oct 13:10:01 13:13:15 47° 330° (NNW) 13:16:30 145.800 FM
Uribyol 2 26 Oct 13:10:38 13:14:50 25° 65° (ENE) 13:19:03 436.500 FM
KITSAT 1 26 Oct 13:13:18 13:21:06 51° 309° (NW) 13:28:58 435.175 FM
ITAMSAT 1 26 Oct 13:16:59 13:21:17 27° 65° (ENE) 13:25:37 435.822 SSB
SO-50 26 Oct 13:21:43 13:26:05 49° 308° (NW) 13:30:36 436.795 FM
AO-7 26 Oct 13:33:02 13:34:44 11° 40° (NE) 13:36:26 29.400 - 29.500 MHz
Oscar 19 26 Oct 13:39:59 13:45:08 81° 257° (WSW) 13:50:18 437.125 CW, 437.150 USB
Sapphire 26 Oct 13:43:53 13:48:53 38° 249° (WSW) 13:53:51 437.095 MHz 1200 baud AX-25 AFSK
Gurwin Techsat 1B 26 Oct 13:46:51 13:51:14 27° 65° (ENE) 13:55:37 435.225 FM
TMSAT-1 26 Oct 13:57:07 14:01:21 25° 65° (ENE) 14:05:36 436.925 FM
AO-27 26 Oct 14:02:01 14:07:11 69° 73° (ENE) 14:12:24 436.795 MHz FM
PCSat 26 Oct 14:06:52 14:11:02 23° 253° (WSW) 14:15:11 145.825 MHz
AO-Echo 26 Oct 14:07:15 14:12:10 86° 257° (WSW) 14:17:17 ?
Saudisat 1A 26 Oct 14:14:04 14:15:22 11° 34° (NE) 14:16:40 436.775 MHz
Oscar 16 26 Oct 14:26:58 14:31:26 29° 264° (W) 14:35:55 437.025 USB, Beacon 2401.1428
UOSAT-12 26 Oct 14:35:34 14:40:12 88° 301° (WNW) 14:44:57 437.025 FM, 437.400 FM
ISS 26 Oct 14:48:16 14:50:33 17° 350° (N) 14:52:50 145.800 FM
Uribyol 2 26 Oct 14:49:08 14:54:04 42° 261° (W) 14:59:02 436.500 FM
JAS-1B 26 Oct 14:49:43 14:54:41 27° 264° (W) 14:59:28 435.800 - 435.900 CW/SSB
ITAMSAT 1 26 Oct 14:55:44 15:00:35 39° 262° (W) 15:05:29 435.822 SSB
KITSAT 1 26 Oct 15:13:44 15:18:41 17° 335° (NNW) 15:23:39 435.175 FM
AO-7 26 Oct 15:17:42 15:25:27 47° 62° (ENE) 15:33:13 29.400 - 29.500 MHz
Gurwin Techsat 1B 26 Oct 15:26:01 15:30:59 40° 262° (W) 15:35:59 435.225 FM
TMSAT-1 26 Oct 15:35:58 15:41:00 44° 262° (W) 15:46:04 436.925 FM
AO-27 26 Oct 15:44:23 15:47:11 15° 270° (W) 15:50:00 436.795 MHz FM
Saudisat 1A 26 Oct 15:51:26 15:55:50 63° 54° (NE) 16:00:12 436.775 MHz
Uosat F 26 Oct 15:53:58 15:58:42 44° 70° (ENE) 16:03:29 435.120 FM
JAS-2 26 Oct 16:13:33 16:18:17 23° 58° (ENE) 16:23:26 435.800 - 435.900 CW/SSB, 435.910 FM
UOSAT-12 26 Oct 16:18:15 16:21:04 16° 323° (NW) 16:23:53 437.025 FM, 437.400 FM
ISS 26 Oct 16:25:54 16:28:12 17° 10° (N) 16:30:29 145.800 FM
AO-7 26 Oct 17:10:37 17:18:16 41° 261° (W) 17:25:59 29.400 - 29.500 MHz
KITSAT 1 26 Oct 17:15:43 17:18:17 12° 6° (N) 17:20:50 435.175 FM
Hamsat 26 Oct 17:29:23 17:33:26 49° 73° (ENE) 17:37:29 145.90 MHz
Saudisat 1A 26 Oct 17:32:33 17:34:53 14° 251° (WSW) 17:37:12 436.775 MHz
Uosat F 26 Oct 17:33:50 17:37:40 22° 266° (W) 17:41:33 435.120 FM
OPAL 26 Oct 17:41:54 17:46:28 36° 100° (E) 17:50:59 ?
JAS-2 26 Oct 17:56:42 18:02:37 64° 260° (W) 18:09:25 435.800 - 435.900 CW/SSB, 435.910 FM
ISS 26 Oct 18:02:14 18:05:29 48° 30° (NNE) 18:08:44 145.800 FM
SO-67 26 Oct 18:57:45 19:01:08 61° 76° (ENE) 19:04:33 435.3500 MHz FM
Hamsat 26 Oct 19:07:29 19:09:39 14° 269° (W) 19:11:50 145.90 MHz
KITSAT 1 26 Oct 19:10:57 19:17:19 24° 36° (NE) 19:23:39 435.175 FM
OPAL 26 Oct 19:21:03 19:25:11 27° 296° (WNW) 19:29:18 ?
STRAND 1 26 Oct 19:29:09 19:34:13 54° 100° (E) 19:39:13 ?
ISS 26 Oct 19:39:22 19:41:58 21° 226° (SW) 19:44:34 145.800 FM
HO-68 26 Oct 19:41:19 19:47:17 30° 60° (ENE) 19:53:16 435.675 MHz FM
SO-50 26 Oct 20:12:49 20:16:46 24° 44° (NE) 20:20:44 436.795 FM
RS-15 26 Oct 20:30:21 20:38:29 25° 102° (ESE) 20:46:31 29.354 - 29.394 USB, Beacon 29.352 USB
UKube-1 26 Oct 20:48:22 20:51:51 24° 67° (ENE) 20:55:22 145.840 MHz, 145.915 MHz
ZACube-1 26 Oct 20:50:22 20:50:55 10° 61° (ENE) 20:51:28 437.345 MHz
KITSAT 1 26 Oct 21:05:50 21:13:58 84° 59° (ENE) 21:22:02 435.175 FM
STRAND 1 26 Oct 21:09:19 21:12:59 20° 297° (WNW) 21:16:39 ?
UOSAT-12 26 Oct 21:26:11 21:28:54 15° 37° (NE) 21:31:37 437.025 FM, 437.400 FM
Oscar 11 26 Oct 21:27:11 21:31:24 54° 73° (ENE) 21:35:38 145.825 FM, Beacon 2401.500 USB
HO-68 26 Oct 21:27:33 21:34:34 57° 258° (WSW) 21:41:39 435.675 MHz FM
FUNcube-1 26 Oct 21:30:55 21:34:44 27° 68° (ENE) 21:38:30 145.950 - 145.970 MHz USB
SO-50 26 Oct 21:52:53 21:57:36 52° 242° (WSW) 22:02:20 436.795 FM
ZACube-1 26 Oct 22:22:01 22:26:37 89° 257° (WSW) 22:31:09 437.345 MHz
UKube-1 26 Oct 22:24:01 22:27:53 31° 263° (W) 22:31:48 145.840 MHz, 145.915 MHz
RS-15 26 Oct 22:38:24 22:49:25 85° 303° (WNW) 23:00:26 29.354 - 29.394 USB, Beacon 29.352 USB
KITSAT 1 26 Oct 23:02:49 23:08:22 21° 258° (WSW) 23:13:55 435.175 FM
UOSAT-12 26 Oct 23:05:03 23:09:48 84° 57° (ENE) 23:14:26 437.025 FM, 437.400 FM
Oscar 11 26 Oct 23:05:46 23:07:54 13° 269° (W) 23:10:02 145.825 FM, Beacon 2401.500 USB
FUNcube-1 26 Oct 23:06:58 23:10:59 30° 264° (W) 23:14:59 145.950 - 145.970 MHz USB
MaSat-1 26 Oct 23:35:24 23:39:29 78° 296° (WNW) 23:43:10 437.345 MHz
